[[{"header":{"parameterUnit":"m.s-1","parameterCategory":1,"la1":30.2991,"la2":30.254,"lo1":-89.0895,"lo2":-89.0444,"dy":0.0017,"dx":0.0017,"nx":28,"ny":28,"refTime":"2024-04-23T09:00:00:Z","depth":0,"parameterNumber":2,"parameterNumberName":"U-component_of_WINDS"},"data":[0,0,0,0,0,0,0,0,0,0,0,0,0,0,0,0,0,0,0,0,0,0,0,0,0,0,0,0,0,0,0,0,0,0,0,0,0,0,0,0,0,0,0,0,0,0,0,0,0,0,0,0,0,0,0,0,0,0,-2.2808,-2.2809,0,-2.2911,-2.2912,-2.2914,-2.2882,-2.288,-2.2878,-2.2876,-2.2979,-2.2983,-2.2988,0,0,0,0,0,0,0,0,0,0,0,0,0,-2.258,-2.2585,-2.2808,-2.2809,-2.281,-2.2911,-2.2913,-2.2914,-2.2882,-2.288,-2.2877,-2.2875,-2.2977,-2.2983,-2.2989,0,0,0,0,0,0,0,0,0,0,0,0,0,-2.2681,-2.2586,-2.2808,-2.2807,-2.2808,-2.2911,-2.2913,-2.2914,-2.2883,-2.288,-2.2876,-2.2873,-2.2975,-2.2982,-2.2989,-2.3098,0,0,-2.3011,-2.3014,0,0,0,0,0,0,0,0,-2.2675,-2.2689,-2.2806,-2.2807,-2.2808,-2.288,-2.287,-2.2976,-2.2884,-2.2854,-2.2876,-2.2872,-2.2949,-2.2958,-2.2984,-2.3103,-2.3108,-2.3012,-2.3016,-2.3019,-2.3021,0,0,0,0,0,0,0,-2.2668,-2.2685,-2.2849,-2.2807,-2.2809,-2.28,-2.2811,-2.289,-2.2918,-2.2857,-2.2855,-2.2867,-2.2949,-2.2977,-2.2986,-2.3109,-2.3012,-2.3018,-2.3022,-2.3025,-2.3323,-2.3326,0,0,0,0,0,0,-2.2661,-2.2679,-2.2845,-2.2852,-2.2733,-2.2807,-2.2819,-2.2861,-2.2917,-2.2923,-2.287,-2.2866,-2.2967,-2.2978,-2.299,-2.3121,-2.3019,-2.3026,-2.303,-2.3319,-2.3324,-2.3328,0,0,0,0,0,0,-2.2656,-2.2676,-2.2841,-2.2765,-2.2785,-2.2815,-2.2861,-2.2864,-2.2893,-2.2928,-2.2932,-2.2894,-2.2965,-2.298,-2.3072,-2.3124,-2.3029,-2.3036,-2.3315,-2.3321,-2.3326,-2.3385,0,0,0,0,0,0,-2.265,-2.2674,-2.2717,-2.2766,-2.279,-2.2922,-2.2865,-2.2869,-2.2906,-2.2901,-2.2952,-2.2957,-2.2963,-2.3061,-2.3079,-2.3132,-2.3041,-2.331,-2.3318,-2.3324,-2.3378,-2.3391,-2.3403,0,0,0,0,0,-2.2642,-2.2729,-2.2719,-2.2739,-2.2843,-2.2925,-2.2939,-2.2945,-2.291,-2.2952,-2.2975,-2.2955,-2.3116,-2.3071,-2.3091,-2.3147,-2.3307,-2.3316,-2.3323,-2.3373,-2.3389,-2.3402,0,0,0,0,0,0,-2.2683,-2.2735,-2.2725,-2.2831,-2.2874,-2.292,-2.2973,-2.2962,-2.3015,-2.3008,-2.3013,-2.3025,-2.3119,-2.3142,-2.3092,-2.3255,-2.3206,-2.3219,-2.3237,-2.3253,-2.3265,-2.3257,-2.3047,0,0,0,0,0,-2.2705,-2.2768,-2.281,-2.2899,-2.2921,-2.2944,-2.298,-2.2981,-2.3026,-2.3044,-2.3073,-2.3116,-2.3176,-2.3216,-2.3273,-2.3382,-2.3392,-2.343,-2.3442,-2.3452,-2.3463,-2.3521,-2.3539,-2.3354,-2.3354,-2.3354,0,0,-2.275,-2.2786,-2.2825,-2.2908,-2.2942,-2.3007,-2.2959,-2.303,-2.3078,-2.3054,-2.3143,-2.3166,-2.3215,-2.3316,-2.3361,-2.3338,-2.3516,-2.3463,-2.347,-2.3475,-2.3531,-2.3549,-2.3564,-2.336,-2.3359,-2.3358,0,0,-2.2865,-2.2899,-2.2977,-2.3012,-2.3064,-2.3079,-2.3098,-2.3146,-2.3161,-2.325,-2.3234,-2.329,-2.3394,-2.343,-2.3461,-2.3591,-2.3574,-2.3609,-2.3673,-2.373,-2.3745,-2.3758,-2.3803,-2.3819,-2.362,-2.362,-2.362,0,-2.2913,-2.3011,-2.3018,-2.3091,-2.3127,-2.311,-2.3189,-2.3222,-2.329,-2.3315,-2.3288,-2.3418,-2.345,-2.3559,-2.359,-2.3617,-2.3638,-2.3603,-2.3742,-2.3755,-2.3767,-2.3811,-2.3828,-2.3624,-2.3623,-2.3623,-2.3622,0,-2.3069,-2.3137,-2.3193,-2.3261,-2.3304,-2.3379,-2.3396,-2.3439,-2.3437,-2.3454,-2.3545,-2.3583,-2.3648,-2.3674,-2.3672,-2.3782,-2.3766,-2.3741,-2.3691,-2.3789,-2.3829,-2.3846,-2.3629,-2.3628,-2.3627,-2.3626,0,0,-2.3211,-2.3282,-2.3303,-2.3333,-2.339,-2.3443,-2.3517,-2.3581,-2.3617,-2.3665,-2.3727,-2.3816,-2.3793,-2.3829,-2.3831,-2.3881,-2.3981,-2.385,-2.3851,-2.3872,-2.4104,-2.4122,-2.4141,-2.3971,-2.3974,-2.3977,-2.41,0,-2.333,-2.3462,-2.347,-2.3589,-2.3652,-2.3637,-2.3702,-2.3743,-2.3762,-2.3817,-2.3837,-2.3899,-2.3865,-2.3886,-2.3936,-2.3958,-2.4027,-2.3949,-2.4027,-2.403,-2.4014,-2.4163,-2.4182,-2.4296,-2.4116,-2.4118,-2.412,0,-2.3486,-2.354,-2.3665,-2.3714,-2.374,-2.3798,-2.3858,-2.3912,-2.3958,-2.3968,-2.4009,-2.4004,-2.4079,-2.4028,-2.4132,-2.4079,-2.4111,-2.4127,-2.4132,-2.4138,-2.408,-2.4172,-2.4333,-2.4349,-2.4146,-2.4144,-2.4142,0,-2.3577,-2.368,-2.3769,-2.3795,-2.3854,-2.3895,-2.3922,-2.3965,-2.4004,-2.4056,-2.408,-2.414,-2.4173,-2.4219,-2.423,-2.4192,-2.4333,-2.4283,-2.4343,-2.4342,-2.4372,-2.437,-2.4539,-2.4395,-2.4395,-2.4394,-2.4394,0,-2.3708,-2.3785,-2.381,-2.3864,-2.395,-2.3959,-2.4044,-2.4067,-2.4106,-2.4164,-2.4155,-2.421,-2.4222,-2.4278,-2.4288,-2.4371,-2.4386,-2.4396,-2.4397,-2.4396,-2.4395,-2.4416,-2.4408,-2.4399,-2.4398,-2.4397,-2.4396,0,-2.3823,-2.3843,-2.3938,-2.3987,-2.4001,-2.4062,-2.4103,-2.4155,-2.4173,-2.4246,-2.4264,-2.4291,-2.4357,-2.4374,-2.4452,-2.4458,-2.4557,-2.4552,-2.4542,-2.4541,-2.4599,-2.4593,-2.4787,-2.4813,-2.4653,-2.4655,-2.4656,0,-2.3905,-2.3964,-2.4019,-2.4058,-2.4087,-2.4149,-2.4188,-2.42,-2.4241,-2.43,-2.4344,-2.441,-2.4462,-2.4569,-2.4595,-2.4655,-2.465,-2.4714,-2.4659,-2.4656,-2.465,-2.4646,-2.4651,-2.4724,-2.4725,-2.4727,-2.4728,0,-2.4047,-2.4055,-2.4113,-2.4175,-2.4222,-2.4271,-2.4317,-2.4349,-2.4367,-2.4414,-2.4482,-2.4524,-2.4605,-2.4669,-2.473,-2.4756,-2.4745,-2.4746,-2.4762,-2.4761,-2.4753,-2.4757,-2.4569,-2.4741,-2.4739,-2.4738,-2.4738,-2.4737,-2.4147,-2.4199,-2.4247,-2.4312,-2.4348,-2.4392,-2.4444,-2.4468,-2.4526,-2.4593,-2.4597,-2.4671,-2.4716,-2.4797,-2.4826,-2.4884,-2.4864,-2.4889,-2.4895,-2.49,-2.4905,-2.4745,-2.4895,-2.4895,-2.4894,-2.4894,-2.4894,0,-2.4289,-2.4319,-2.4379,-2.4445,-2.4496,-2.4483,-2.4534,-2.4577,-2.4643,-2.4687,-2.474,-2.4818,-2.4881,-2.4913,-2.4975,-2.5015,-2.5012,-2.5031,-2.5027,-2.5033,-2.4919,-2.4898,-2.5033,-2.5033,-2.5033,-2.5033,-2.5033,-2.5033,-2.4368,-2.4455,-2.4469,-2.4574,-2.4603,-2.4677,-2.4707,-2.4747,-2.4782,-2.4871,-2.4924,-2.4945,-2.4984,-2.5049,-2.5106,-2.5114,-2.5136,-2.5158,-2.5163,-2.5056,-2.5042,-2.5028,-2.5008,-2.5164,-2.5164,-2.5272,-2.5273,-2.5274]},{"header":{"parameterUnit":"m.s-1","parameterCategory":1,"la1":30.2991,"la2":30.254,"lo1":-89.0895,"lo2":-89.0444,"dy":0.0017,"dx":0.0017,"nx":28,"ny":28,"refTime":"2024-04-23T09:00:00:Z","depth":0,"parameterNumber":3,"parameterNumberName":"V-component_of_WINDS"},"data":[0,0,0,0,0,0,0,0,0,0,0,0,0,0,0,0,0,0,0,0,0,0,0,0,0,0,0,0,0,0,0,0,0,0,0,0,0,0,0,0,0,0,0,0,0,0,0,0,0,0,0,0,0,0,0,0,0,0,-2.8492,-2.8493,0,-2.8547,-2.8547,-2.8548,-2.8547,-2.8546,-2.8546,-2.8545,-2.8596,-2.8598,-2.86,0,0,0,0,0,0,0,0,0,0,0,0,0,-2.8383,-2.8385,-2.8492,-2.8493,-2.8494,-2.8547,-2.8547,-2.8548,-2.8547,-2.8546,-2.8545,-2.8545,-2.8596,-2.8598,-2.8601,0,0,0,0,0,0,0,0,0,0,0,0,0,-2.8433,-2.8385,-2.8492,-2.85,-2.8501,-2.8547,-2.8547,-2.8548,-2.8547,-2.8546,-2.8545,-2.8544,-2.8595,-2.8598,-2.8601,-2.8641,0,0,-2.861,-2.8612,0,0,0,0,0,0,0,0,-2.843,-2.8437,-2.8498,-2.8499,-2.8501,-2.8539,-2.8528,-2.8579,-2.8548,-2.853,-2.8545,-2.8544,-2.8578,-2.8582,-2.8595,-2.8644,-2.8646,-2.8611,-2.8612,-2.8614,-2.8615,0,0,0,0,0,0,0,-2.8427,-2.8434,-2.8514,-2.8499,-2.85,-2.8499,-2.8505,-2.8537,-2.8559,-2.8531,-2.8531,-2.8538,-2.8578,-2.8592,-2.8596,-2.8647,-2.8611,-2.8613,-2.8615,-2.8616,-2.8729,-2.8731,0,0,0,0,0,0,-2.8422,-2.8432,-2.8512,-2.8515,-2.8462,-2.8502,-2.8508,-2.8528,-2.8559,-2.8562,-2.8539,-2.8538,-2.8587,-2.8592,-2.8598,-2.8645,-2.8614,-2.8617,-2.8618,-2.8728,-2.873,-2.8731,0,0,0,0,0,0,-2.842,-2.8429,-2.851,-2.8474,-2.8484,-2.8505,-2.8527,-2.8529,-2.8543,-2.8565,-2.8568,-2.8549,-2.8586,-2.8593,-2.863,-2.8647,-2.8618,-2.8621,-2.8727,-2.8729,-2.873,-2.8742,0,0,0,0,0,0,-2.8417,-2.8429,-2.8445,-2.8474,-2.8486,-2.8543,-2.8528,-2.8531,-2.8549,-2.8548,-2.8575,-2.8578,-2.8586,-2.8626,-2.8633,-2.8651,-2.8623,-2.8725,-2.8728,-2.873,-2.874,-2.8744,-2.8747,0,0,0,0,0,-2.8413,-2.8446,-2.8446,-2.8456,-2.8507,-2.8544,-2.855,-2.856,-2.855,-2.8566,-2.858,-2.8577,-2.8645,-2.863,-2.8638,-2.8657,-2.8724,-2.8727,-2.873,-2.8739,-2.8743,-2.8747,0,0,0,0,0,0,-2.8418,-2.845,-2.845,-2.8495,-2.8517,-2.8544,-2.8565,-2.8565,-2.859,-2.8587,-2.8597,-2.8603,-2.864,-2.8652,-2.8635,-2.8697,-2.8683,-2.8687,-2.8687,-2.8692,-2.8695,-2.869,-2.8626,0,0,0,0,0,-2.8424,-2.8453,-2.8479,-2.8515,-2.8526,-2.8544,-2.856,-2.8566,-2.8588,-2.8597,-2.8614,-2.8635,-2.866,-2.8677,-2.8702,-2.8743,-2.8747,-2.876,-2.8763,-2.8766,-2.8769,-2.8789,-2.8794,-2.874,-2.874,-2.874,0,0,-2.8437,-2.8458,-2.8476,-2.8517,-2.8534,-2.8562,-2.8551,-2.8581,-2.8601,-2.8601,-2.8637,-2.865,-2.8674,-2.8712,-2.873,-2.8724,-2.8785,-2.8769,-2.8771,-2.8773,-2.8793,-2.8798,-2.8802,-2.8741,-2.8741,-2.8741,0,0,-2.8475,-2.8495,-2.8526,-2.8544,-2.8572,-2.8583,-2.859,-2.8618,-2.8626,-2.8663,-2.8663,-2.8686,-2.8731,-2.8747,-2.8761,-2.8804,-2.8802,-2.8812,-2.8829,-2.8849,-2.8853,-2.8857,-2.887,-2.8875,-2.8815,-2.8815,-2.8815,0,-2.8487,-2.853,-2.8542,-2.8572,-2.8589,-2.8591,-2.8622,-2.8639,-2.8672,-2.8683,-2.8676,-2.8731,-2.8747,-2.8789,-2.8799,-2.8811,-2.8818,-2.8808,-2.8852,-2.8856,-2.886,-2.8872,-2.8878,-2.8816,-2.8816,-2.8816,-2.8816,0,-2.8543,-2.8573,-2.8594,-2.8628,-2.8647,-2.8677,-2.8692,-2.871,-2.8714,-2.8725,-2.8761,-2.878,-2.8809,-2.8819,-2.8823,-2.8861,-2.8856,-2.885,-2.8836,-2.8866,-2.8878,-2.8883,-2.8817,-2.8817,-2.8817,-2.8817,0,0,-2.8585,-2.8624,-2.8631,-2.8646,-2.8676,-2.8698,-2.8728,-2.8756,-2.877,-2.8794,-2.8817,-2.8854,-2.8849,-2.8865,-2.8871,-2.8888,-2.8918,-2.8881,-2.8881,-2.8885,-2.8959,-2.8961,-2.8967,-2.8918,-2.8919,-2.892,-2.8956,0,-2.8624,-2.8677,-2.8688,-2.8734,-2.876,-2.8763,-2.8788,-2.8808,-2.8819,-2.8842,-2.8853,-2.8879,-2.8872,-2.8881,-2.8899,-2.8911,-2.8933,-2.8909,-2.8937,-2.8938,-2.893,-2.8973,-2.8976,-2.9009,-2.8961,-2.8962,-2.8962,0,-2.8677,-2.8702,-2.875,-2.8775,-2.8787,-2.8809,-2.8835,-2.8858,-2.888,-2.8887,-2.8904,-2.8908,-2.8936,-2.8922,-2.8961,-2.8944,-2.8956,-2.8964,-2.8965,-2.8967,-2.8951,-2.8974,-2.9021,-2.9025,-2.897,-2.8969,-2.8969,0,-2.87,-2.8745,-2.878,-2.8792,-2.8823,-2.8839,-2.8852,-2.8873,-2.8889,-2.8912,-2.8922,-2.8947,-2.896,-2.8979,-2.8988,-2.8978,-2.9025,-2.9013,-2.903,-2.9029,-2.9038,-2.9037,-2.9085,-2.9049,-2.9049,-2.9049,-2.9049,0,-2.8741,-2.877,-2.879,-2.8811,-2.8843,-2.8855,-2.8885,-2.8898,-2.8917,-2.8939,-2.8943,-2.8963,-2.8975,-2.8997,-2.9004,-2.9033,-2.904,-2.9044,-2.9046,-2.9043,-2.9042,-2.905,-2.9047,-2.905,-2.905,-2.905,-2.905,0,-2.8772,-2.8787,-2.8824,-2.885,-2.8857,-2.888,-2.8901,-2.892,-2.8932,-2.8959,-2.8967,-2.8984,-2.9009,-2.9021,-2.9052,-2.9057,-2.9089,-2.909,-2.9082,-2.9082,-2.9098,-2.9096,-2.9151,-2.9158,-2.9119,-2.912,-2.912,0,-2.8796,-2.8819,-2.8848,-2.8863,-2.8877,-2.8902,-2.8919,-2.8931,-2.8947,-2.8973,-2.8989,-2.9015,-2.9036,-2.9076,-2.909,-2.9114,-2.9114,-2.9132,-2.9117,-2.9113,-2.9111,-2.9109,-2.9111,-2.9134,-2.9134,-2.9134,-2.9135,0,-2.8838,-2.8844,-2.8868,-2.8895,-2.8915,-2.8936,-2.8957,-2.8969,-2.8983,-2.9002,-2.9028,-2.9045,-2.9077,-2.9101,-2.9126,-2.9137,-2.9138,-2.9139,-2.9144,-2.9141,-2.9135,-2.9136,-2.9087,-2.9138,-2.9137,-2.9137,-2.9137,-2.9137,-2.8865,-2.8884,-2.8907,-2.8934,-2.8951,-2.897,-2.8989,-2.9003,-2.9025,-2.9053,-2.9058,-2.9086,-2.9106,-2.9139,-2.9151,-2.9172,-2.9167,-2.9175,-2.9176,-2.9178,-2.9177,-2.9133,-2.9176,-2.9176,-2.9176,-2.9176,-2.9176,0,-2.8905,-2.892,-2.8944,-2.8973,-2.8993,-2.8994,-2.9016,-2.9033,-2.9057,-2.9077,-2.9097,-2.9127,-2.9151,-2.9167,-2.919,-2.9204,-2.9204,-2.9209,-2.9207,-2.921,-2.9181,-2.9174,-2.9208,-2.9208,-2.9208,-2.9208,-2.9208,-2.9208,-2.8928,-2.896,-2.8969,-2.9009,-2.9023,-2.9051,-2.9063,-2.908,-2.9096,-2.9129,-2.9149,-2.916,-2.9177,-2.9202,-2.9223,-2.9227,-2.9234,-2.9239,-2.9243,-2.9215,-2.9212,-2.9209,-2.9202,-2.9242,-2.9242,-2.927,-2.927,-2.927]}]]